contact:dominique.lefevre@mio.osupytheas.fr, maurice.libes@osupytheas.fr, didier.mallarino@osupytheas.fr
Project:EMSO http://www.emso-fr.org/EMSO-France
Depth: 2436.0 m
Title:EMSO Ligure Ouest : Data MII capteur MICROCAT
DateTime_Computer,Latitude,Longitude,Temperature,Conductivity,Pressure,DateTime_Instrument
DateTime_Computer,Latitude,Longitude,degC,S m-1,dbar,DateTime_Instrument
2019-05-26T00:01:23Z,42.805,6.029,13.2954,4.59954,2469.713,2019-5-26T02:01:37Z
2019-05-26T00:04:26Z,42.805,6.029,13.2947,4.59956,2469.704,2019-5-26T02:04:40Z
2019-05-26T00:07:28Z,42.805,6.029,13.2956,4.59954,2469.713,2019-5-26T02:07:43Z
2019-05-26T00:10:31Z,42.805,6.029,13.2952,4.59955,2469.704,2019-5-26T02:10:46Z
2019-05-26T00:13:34Z,42.805,6.029,13.2953,4.59956,2469.713,2019-5-26T02:13:49Z
2019-05-26T00:16:37Z,42.805,6.029,13.2953,4.59955,2469.713,2019-5-26T02:16:52Z
2019-05-26T00:19:40Z,42.805,6.029,13.2948,4.59954,2469.713,2019-5-26T02:19:55Z
2019-05-26T00:22:43Z,42.805,6.029,13.2952,4.59954,2469.704,2019-5-26T02:22:58Z
2019-05-26T00:25:46Z,42.805,6.029,13.2950,4.59954,2469.643,2019-5-26T02:26:01Z
2019-05-26T00:28:49Z,42.805,6.029,13.2953,4.59954,2469.713,2019-5-26T02:29:04Z
2019-05-26T00:31:52Z,42.805,6.029,13.2950,4.59953,2469.75,2019-5-26T02:32:07Z
2019-05-26T00:34:55Z,42.805,6.029,13.2953,4.59954,2469.75,2019-5-26T02:35:10Z
2019-05-26T00:37:58Z,42.805,6.029,13.2949,4.59954,2469.727,2019-5-26T02:38:13Z
2019-05-26T00:41:01Z,42.805,6.029,13.2948,4.59951,2469.737,2019-5-26T02:41:15Z
2019-05-26T00:44:04Z,42.805,6.029,13.2950,4.59956,2469.727,2019-5-26T02:44:18Z
2019-05-26T00:47:07Z,42.805,6.029,13.2950,4.59951,2469.704,2019-5-26T02:47:21Z
2019-05-26T00:50:10Z,42.805,6.029,13.2952,4.59955,2469.704,2019-5-26T02:50:24Z
2019-05-26T00:53:13Z,42.805,6.029,13.2956,4.59954,2469.643,2019-5-26T02:53:27Z
2019-05-26T00:56:16Z,42.805,6.029,13.2955,4.59953,2469.704,2019-5-26T02:56:30Z
2019-05-26T00:59:19Z,42.805,6.029,13.2952,4.59952,2469.727,2019-5-26T02:59:33Z
2019-05-26T01:02:22Z,42.805,6.029,13.2952,4.59951,2469.68,2019-5-26T03:02:36Z
2019-05-26T01:05:24Z,42.805,6.029,13.2952,4.59951,2469.704,2019-5-26T03:05:39Z
2019-05-26T01:08:27Z,42.805,6.029,13.2952,4.59951,2469.713,2019-5-26T03:08:42Z
2019-05-26T01:11:30Z,42.805,6.029,13.2955,4.59952,2469.704,2019-5-26T03:11:45Z
2019-05-26T01:14:33Z,42.805,6.029,13.2948,4.59954,2469.713,2019-5-26T03:14:48Z
2019-05-26T01:17:36Z,42.805,6.029,13.2950,4.59952,2469.69,2019-5-26T03:17:51Z
2019-05-26T01:20:39Z,42.805,6.029,13.2950,4.59954,2469.713,2019-5-26T03:20:54Z
2019-05-26T01:23:42Z,42.805,6.029,13.2952,4.59953,2469.713,2019-5-26T03:23:57Z
2019-05-26T01:26:45Z,42.805,6.029,13.2952,4.59954,2469.713,2019-5-26T03:27:00Z
2019-05-26T01:29:48Z,42.805,6.029,13.2955,4.59953,2469.727,2019-5-26T03:30:03Z
2019-05-26T01:32:51Z,42.805,6.029,13.2952,4.59953,2469.69,2019-5-26T03:33:06Z
2019-05-26T01:35:54Z,42.805,6.029,13.2952,4.59955,2469.713,2019-5-26T03:36:09Z
2019-05-26T01:38:57Z,42.805,6.029,13.2952,4.59956,2469.727,2019-5-26T03:39:11Z
2019-05-26T01:42:00Z,42.805,6.029,13.2952,4.59957,2469.69,2019-5-26T03:42:14Z
2019-05-26T01:45:03Z,42.805,6.029,13.2949,4.59951,2469.704,2019-5-26T03:45:17Z
2019-05-26T01:48:06Z,42.805,6.029,13.2951,4.59953,2469.643,2019-5-26T03:48:20Z
2019-05-26T01:51:09Z,42.805,6.029,13.2953,4.59953,2469.69,2019-5-26T03:51:23Z
2019-05-26T01:54:12Z,42.805,6.029,13.2952,4.59953,2469.69,2019-5-26T03:54:26Z
2019-05-26T01:57:15Z,42.805,6.029,13.2953,4.59951,2469.69,2019-5-26T03:57:29Z
2019-05-26T02:00:18Z,42.805,6.029,13.2952,4.59952,2469.68,2019-5-26T04:00:32Z
2019-05-26T02:03:21Z,42.805,6.029,13.2950,4.59952,2469.704,2019-5-26T04:03:35Z
2019-05-26T02:06:23Z,42.805,6.029,13.2951,4.59950,2469.667,2019-5-26T04:06:38Z
2019-05-26T02:09:26Z,42.805,6.029,13.2949,4.59952,2469.704,2019-5-26T04:09:41Z
2019-05-26T02:12:29Z,42.805,6.029,13.2952,4.59952,2469.667,2019-5-26T04:12:44Z
2019-05-26T02:15:32Z,42.805,6.029,13.2949,4.59952,2469.713,2019-5-26T04:15:47Z
2019-05-26T02:18:35Z,42.805,6.029,13.2948,4.59953,2469.69,2019-5-26T04:18:50Z
2019-05-26T02:21:38Z,42.805,6.029,13.2951,4.59952,2469.657,2019-5-26T04:21:53Z
2019-05-26T02:24:41Z,42.805,6.029,13.2949,4.59956,2469.713,2019-5-26T04:24:56Z
2019-05-26T02:27:44Z,42.805,6.029,13.2949,4.59953,2469.704,2019-5-26T04:27:59Z
2019-05-26T02:30:47Z,42.805,6.029,13.2949,4.59951,2469.704,2019-5-26T04:31:02Z
2019-05-26T02:33:50Z,42.805,6.029,13.2950,4.59951,2469.69,2019-5-26T04:34:05Z
2019-05-26T02:36:53Z,42.805,6.029,13.2952,4.59950,2469.69,2019-5-26T04:37:08Z
2019-05-26T02:39:56Z,42.805,6.029,13.2952,4.59950,2469.69,2019-5-26T04:40:10Z
2019-05-26T02:42:59Z,42.805,6.029,13.2952,4.59951,2469.69,2019-5-26T04:43:13Z
2019-05-26T02:46:02Z,42.805,6.029,13.2948,4.59951,2469.68,2019-5-26T04:46:16Z
2019-05-26T02:49:05Z,42.805,6.029,13.2947,4.59951,2469.704,2019-5-26T04:49:19Z
2019-05-26T02:52:08Z,42.805,6.029,13.2952,4.59951,2469.68,2019-5-26T04:52:22Z
2019-05-26T02:55:11Z,42.805,6.029,13.2954,4.59952,2469.68,2019-5-26T04:55:25Z
2019-05-26T02:58:14Z,42.805,6.029,13.2951,4.59951,2469.68,2019-5-26T04:58:28Z
2019-05-26T03:01:16Z,42.805,6.029,13.2952,4.59951,2469.69,2019-5-26T05:01:31Z
2019-05-26T03:04:19Z,42.805,6.029,13.2953,4.59951,2469.704,2019-5-26T05:04:34Z
2019-05-26T03:07:22Z,42.805,6.029,13.2953,4.59951,2469.643,2019-5-26T05:07:37Z
2019-05-26T03:10:25Z,42.805,6.029,13.2948,4.59950,2469.667,2019-5-26T05:10:40Z
2019-05-26T03:13:28Z,42.805,6.029,13.2952,4.59951,2469.69,2019-5-26T05:13:43Z
2019-05-26T03:16:31Z,42.805,6.029,13.2952,4.59951,2469.704,2019-5-26T05:16:46Z
2019-05-26T03:19:34Z,42.805,6.029,13.2953,4.59953,2469.68,2019-5-26T05:19:49Z
2019-05-26T03:22:37Z,42.805,6.029,13.2952,4.59951,2469.667,2019-5-26T05:22:52Z
2019-05-26T03:25:40Z,42.805,6.029,13.2948,4.59951,2469.62,2019-5-26T05:25:55Z
2019-05-26T03:28:43Z,42.805,6.029,13.2951,4.59951,2469.68,2019-5-26T05:28:58Z
2019-05-26T03:31:46Z,42.805,6.029,13.2948,4.59950,2469.643,2019-5-26T05:32:01Z
2019-05-26T03:34:49Z,42.805,6.029,13.2950,4.59951,2469.643,2019-5-26T05:35:04Z
2019-05-26T03:37:52Z,42.805,6.029,13.2953,4.59949,2469.68,2019-5-26T05:38:07Z
2019-05-26T03:40:55Z,42.805,6.029,13.2952,4.59949,2469.704,2019-5-26T05:41:09Z
2019-05-26T03:43:58Z,42.805,6.029,13.2952,4.59950,2469.643,2019-5-26T05:44:12Z
2019-05-26T03:47:01Z,42.805,6.029,13.2950,4.59951,2469.62,2019-5-26T05:47:15Z
2019-05-26T03:50:04Z,42.805,6.029,13.2953,4.59950,2469.643,2019-5-26T05:50:18Z
2019-05-26T03:53:07Z,42.805,6.029,13.2952,4.59951,2469.657,2019-5-26T05:53:21Z
2019-05-26T03:56:10Z,42.805,6.029,13.2951,4.59951,2469.643,2019-5-26T05:56:24Z
2019-05-26T03:59:13Z,42.805,6.029,13.2951,4.59951,2469.643,2019-5-26T05:59:27Z
2019-05-26T04:02:15Z,42.805,6.029,13.2952,4.59951,2469.629,2019-5-26T06:02:30Z
2019-05-26T04:05:18Z,42.805,6.029,13.2954,4.59950,2469.643,2019-5-26T06:05:33Z
2019-05-26T04:08:21Z,42.805,6.029,13.2952,4.59951,2469.634,2019-5-26T06:08:36Z
2019-05-26T04:11:24Z,42.805,6.029,13.2951,4.59951,2469.657,2019-5-26T06:11:39Z
2019-05-26T04:14:27Z,42.805,6.029,13.2948,4.59951,2469.643,2019-5-26T06:14:42Z
2019-05-26T04:17:30Z,42.805,6.029,13.2949,4.59951,2469.643,2019-5-26T06:17:45Z
2019-05-26T04:20:33Z,42.805,6.029,13.2950,4.59951,2469.62,2019-5-26T06:20:48Z
2019-05-26T04:23:36Z,42.805,6.029,13.2953,4.59951,2469.62,2019-5-26T06:23:51Z
2019-05-26T04:26:39Z,42.805,6.029,13.2951,4.59953,2469.657,2019-5-26T06:26:54Z
2019-05-26T04:29:42Z,42.805,6.029,13.2952,4.59952,2469.573,2019-5-26T06:29:57Z
2019-05-26T04:32:45Z,42.805,6.029,13.2948,4.59952,2469.643,2019-5-26T06:33:00Z
2019-05-26T04:35:48Z,42.805,6.029,13.2952,4.59951,2469.643,2019-5-26T06:36:03Z
2019-05-26T04:38:51Z,42.805,6.029,13.2956,4.59951,2469.643,2019-5-26T06:39:05Z
2019-05-26T04:41:54Z,42.805,6.029,13.2953,4.59952,2469.657,2019-5-26T06:42:08Z
2019-05-26T04:44:57Z,42.805,6.029,13.2952,4.59949,2469.643,2019-5-26T06:45:11Z
2019-05-26T04:48:00Z,42.805,6.029,13.2952,4.59951,2469.643,2019-5-26T06:48:14Z
2019-05-26T04:51:03Z,42.805,6.029,13.2947,4.59949,2469.62,2019-5-26T06:51:17Z
2019-05-26T04:54:06Z,42.805,6.029,13.2952,4.59956,2469.634,2019-5-26T06:54:20Z
2019-05-26T04:57:09Z,42.805,6.029,13.2953,4.59950,2469.62,2019-5-26T06:57:23Z
2019-05-26T05:00:11Z,42.805,6.029,13.2948,4.59950,2469.62,2019-5-26T07:00:26Z
2019-05-26T05:03:14Z,42.805,6.029,13.2948,4.59953,2469.643,2019-5-26T07:03:29Z
2019-05-26T05:06:17Z,42.805,6.029,13.2952,4.59951,2469.634,2019-5-26T07:06:32Z
2019-05-26T05:09:20Z,42.805,6.029,13.2951,4.59953,2469.643,2019-5-26T07:09:35Z
2019-05-26T05:12:23Z,42.805,6.029,13.2953,4.59951,2469.643,2019-5-26T07:12:38Z
2019-05-26T05:15:26Z,42.805,6.029,13.2953,4.59953,2469.62,2019-5-26T07:15:41Z
2019-05-26T05:18:29Z,42.805,6.029,13.2950,4.59949,2469.657,2019-5-26T07:18:44Z
2019-05-26T05:21:32Z,42.805,6.029,13.2949,4.59953,2469.657,2019-5-26T07:21:47Z
2019-05-26T05:24:35Z,42.805,6.029,13.2948,4.59950,2469.657,2019-5-26T07:24:50Z
2019-05-26T05:27:38Z,42.805,6.029,13.2950,4.59949,2469.62,2019-5-26T07:27:53Z
2019-05-26T05:30:41Z,42.805,6.029,13.2952,4.59954,2469.61,2019-5-26T07:30:56Z
2019-05-26T05:33:44Z,42.805,6.029,13.2952,4.59954,2469.61,2019-5-26T07:33:59Z
2019-05-26T05:36:47Z,42.805,6.029,13.2952,4.59951,2469.62,2019-5-26T07:37:01Z
2019-05-26T05:39:50Z,42.805,6.029,13.2953,4.59949,2469.634,2019-5-26T07:40:04Z
2019-05-26T05:42:53Z,42.805,6.029,13.2952,4.59952,2469.62,2019-5-26T07:43:07Z
2019-05-26T05:45:56Z,42.805,6.029,13.2954,4.59951,2469.657,2019-5-26T07:46:10Z
2019-05-26T05:48:59Z,42.805,6.029,13.2953,4.59956,2469.61,2019-5-26T07:49:13Z
2019-05-26T05:52:02Z,42.805,6.029,13.2951,4.59949,2469.61,2019-5-26T07:52:16Z
2019-05-26T05:55:05Z,42.805,6.029,13.2953,4.59948,2469.62,2019-5-26T07:55:19Z
2019-05-26T05:58:07Z,42.805,6.029,13.2954,4.59951,2469.657,2019-5-26T07:58:22Z
2019-05-26T06:01:10Z,42.805,6.029,13.2952,4.59949,2469.597,2019-5-26T08:01:25Z
2019-05-26T06:04:13Z,42.805,6.029,13.2952,4.59951,2469.597,2019-5-26T08:04:28Z
2019-05-26T06:07:16Z,42.805,6.029,13.2948,4.59949,2469.597,2019-5-26T08:07:31Z
2019-05-26T06:10:19Z,42.805,6.029,13.2952,4.59951,2469.573,2019-5-26T08:10:34Z
2019-05-26T06:13:22Z,42.805,6.029,13.2950,4.59951,2469.587,2019-5-26T08:13:37Z
2019-05-26T06:16:25Z,42.805,6.029,13.2951,4.59950,2469.597,2019-5-26T08:16:40Z
2019-05-26T06:19:28Z,42.805,6.029,13.2950,4.59948,2469.634,2019-5-26T08:19:43Z
2019-05-26T06:22:31Z,42.805,6.029,13.2951,4.59949,2469.587,2019-5-26T08:22:46Z
2019-05-26T06:25:34Z,42.805,6.029,13.2948,4.59949,2469.587,2019-5-26T08:25:49Z
2019-05-26T06:28:37Z,42.805,6.029,13.2952,4.59949,2469.563,2019-5-26T08:28:52Z
2019-05-26T06:31:40Z,42.805,6.029,13.2952,4.59957,2469.587,2019-5-26T08:31:55Z
2019-05-26T06:34:43Z,42.805,6.029,13.2949,4.59949,2469.587,2019-5-26T08:34:58Z
2019-05-26T06:37:46Z,42.805,6.029,13.2955,4.59948,2469.587,2019-5-26T08:38:00Z
2019-05-26T06:40:49Z,42.805,6.029,13.2954,4.59951,2469.597,2019-5-26T08:41:03Z
2019-05-26T06:43:52Z,42.805,6.029,13.2948,4.59951,2469.61,2019-5-26T08:44:06Z
2019-05-26T06:46:55Z,42.805,6.029,13.2948,4.59949,2469.573,2019-5-26T08:47:09Z
2019-05-26T06:49:58Z,42.805,6.029,13.2952,4.59953,2469.62,2019-5-26T08:50:12Z
2019-05-26T06:53:01Z,42.805,6.029,13.2951,4.59956,2469.573,2019-5-26T08:53:15Z
2019-05-26T06:56:04Z,42.805,6.029,13.2951,4.59948,2469.563,2019-5-26T08:56:18Z
2019-05-26T06:59:07Z,42.805,6.029,13.2952,4.59948,2469.597,2019-5-26T08:59:21Z
2019-05-26T07:02:09Z,42.805,6.029,13.2953,4.59950,2469.597,2019-5-26T09:02:24Z
2019-05-26T07:05:12Z,42.805,6.029,13.2948,4.59951,2469.61,2019-5-26T09:05:27Z
2019-05-26T07:08:15Z,42.805,6.029,13.2951,4.59956,2469.587,2019-5-26T09:08:30Z
2019-05-26T07:11:18Z,42.805,6.029,13.2956,4.59951,2469.587,2019-5-26T09:11:33Z
2019-05-26T07:14:21Z,42.805,6.029,13.2950,4.59951,2469.587,2019-5-26T09:14:36Z
2019-05-26T07:17:24Z,42.805,6.029,13.2954,4.59951,2469.634,2019-5-26T09:17:39Z
2019-05-26T07:20:27Z,42.805,6.029,13.2953,4.59952,2469.587,2019-5-26T09:20:42Z
2019-05-26T07:23:30Z,42.805,6.029,13.2956,4.59951,2469.587,2019-5-26T09:23:45Z
2019-05-26T07:26:33Z,42.805,6.029,13.2955,4.59962,2469.55,2019-5-26T09:26:48Z
2019-05-26T07:29:36Z,42.805,6.029,13.2956,4.59953,2469.573,2019-5-26T09:29:51Z
2019-05-26T07:32:39Z,42.805,6.029,13.2956,4.59949,2469.55,2019-5-26T09:32:54Z
2019-05-26T07:35:42Z,42.805,6.029,13.2950,4.59950,2469.62,2019-5-26T09:35:56Z
2019-05-26T07:38:45Z,42.805,6.029,13.2950,4.59948,2469.55,2019-5-26T09:38:59Z
2019-05-26T07:41:48Z,42.805,6.029,13.2947,4.59949,2469.55,2019-5-26T09:42:02Z
2019-05-26T07:44:51Z,42.805,6.029,13.2950,4.59951,2469.587,2019-5-26T09:45:05Z
2019-05-26T07:47:54Z,42.805,6.029,13.2949,4.59949,2469.55,2019-5-26T09:48:08Z
2019-05-26T07:50:57Z,42.805,6.029,13.2952,4.59949,2469.573,2019-5-26T09:51:11Z
2019-05-26T07:54:00Z,42.805,6.029,13.2952,4.59949,2469.587,2019-5-26T09:54:14Z
2019-05-26T07:57:02Z,42.805,6.029,13.2953,4.59949,2469.61,2019-5-26T09:57:17Z
2019-05-26T08:00:05Z,42.805,6.029,13.2953,4.59950,2469.55,2019-5-26T10:00:20Z
2019-05-26T08:03:08Z,42.805,6.029,13.2954,4.59950,2469.55,2019-5-26T10:03:23Z
2019-05-26T08:06:11Z,42.805,6.029,13.2956,4.59955,2469.55,2019-5-26T10:06:26Z
2019-05-26T08:09:14Z,42.805,6.029,13.2952,4.59952,2469.526,2019-5-26T10:09:29Z
2019-05-26T08:12:17Z,42.805,6.029,13.2951,4.59955,2469.573,2019-5-26T10:12:32Z
2019-05-26T08:15:20Z,42.805,6.029,13.2954,4.59951,2469.587,2019-5-26T10:15:35Z
2019-05-26T08:18:23Z,42.805,6.029,13.2952,4.59961,2469.573,2019-5-26T10:18:38Z
2019-05-26T08:21:26Z,42.805,6.029,13.2952,4.59951,2469.587,2019-5-26T10:21:41Z
2019-05-26T08:24:29Z,42.805,6.029,13.2952,4.59951,2469.55,2019-5-26T10:24:44Z
2019-05-26T08:27:32Z,42.805,6.029,13.2951,4.59958,2469.563,2019-5-26T10:27:47Z
2019-05-26T08:30:35Z,42.805,6.029,13.2952,4.59956,2469.563,2019-5-26T10:30:50Z
2019-05-26T08:33:38Z,42.805,6.029,13.2951,4.59951,2469.587,2019-5-26T10:33:53Z
2019-05-26T08:36:41Z,42.805,6.029,13.2950,4.59951,2469.563,2019-5-26T10:36:56Z
2019-05-26T08:39:44Z,42.805,6.029,13.2952,4.59956,2469.563,2019-5-26T10:39:58Z
2019-05-26T08:42:47Z,42.805,6.029,13.2951,4.59958,2469.573,2019-5-26T10:43:01Z
2019-05-26T08:45:50Z,42.805,6.029,13.2957,4.59950,2469.573,2019-5-26T10:46:04Z
2019-05-26T08:48:53Z,42.805,6.029,13.2950,4.59954,2469.573,2019-5-26T10:49:07Z
2019-05-26T08:51:56Z,42.805,6.029,13.2954,4.59951,2469.563,2019-5-26T10:52:10Z
2019-05-26T08:54:59Z,42.805,6.029,13.2953,4.59950,2469.597,2019-5-26T10:55:13Z
2019-05-26T08:58:02Z,42.805,6.029,13.2955,4.59953,2469.563,2019-5-26T10:58:16Z
2019-05-26T09:01:05Z,42.805,6.029,13.2949,4.59948,2469.587,2019-5-26T11:01:19Z
2019-05-26T09:04:07Z,42.805,6.029,13.2948,4.59950,2469.597,2019-5-26T11:04:22Z
2019-05-26T09:07:10Z,42.805,6.029,13.2948,4.59956,2469.55,2019-5-26T11:07:25Z
2019-05-26T09:10:13Z,42.805,6.029,13.2952,4.59955,2469.55,2019-5-26T11:10:28Z
2019-05-26T09:13:16Z,42.805,6.029,13.2957,4.59957,2469.55,2019-5-26T11:13:31Z
2019-05-26T09:16:19Z,42.805,6.029,13.2953,4.59954,2469.597,2019-5-26T11:16:34Z
2019-05-26T09:19:22Z,42.805,6.029,13.2956,4.59955,2469.573,2019-5-26T11:19:37Z
2019-05-26T09:22:25Z,42.805,6.029,13.2954,4.59954,2469.597,2019-5-26T11:22:40Z
2019-05-26T09:25:28Z,42.805,6.029,13.2956,4.59962,2469.563,2019-5-26T11:25:43Z
2019-05-26T09:28:31Z,42.805,6.029,13.2953,4.59954,2469.587,2019-5-26T11:28:46Z
2019-05-26T09:31:34Z,42.805,6.029,13.2952,4.59955,2469.573,2019-5-26T11:31:49Z
2019-05-26T09:34:37Z,42.805,6.029,13.2948,4.59949,2469.573,2019-5-26T11:34:52Z
2019-05-26T09:37:40Z,42.805,6.029,13.2949,4.59951,2469.563,2019-5-26T11:37:55Z
2019-05-26T09:40:43Z,42.805,6.029,13.2952,4.59950,2469.563,2019-5-26T11:40:58Z
2019-05-26T09:43:46Z,42.805,6.029,13.2953,4.59951,2469.573,2019-5-26T11:44:01Z
2019-05-26T09:46:49Z,42.805,6.029,13.2952,4.59965,2469.597,2019-5-26T11:47:03Z
2019-05-26T09:49:52Z,42.805,6.029,13.2946,4.59952,2469.587,2019-5-26T11:50:06Z
2019-05-26T09:52:55Z,42.805,6.029,13.2952,4.59951,2469.61,2019-5-26T11:53:09Z
2019-05-26T09:55:58Z,42.805,6.029,13.2952,4.59951,2469.597,2019-5-26T11:56:12Z
2019-05-26T09:59:01Z,42.805,6.029,13.2955,4.59952,2469.587,2019-5-26T11:59:15Z
2019-05-26T10:02:04Z,42.805,6.029,13.2950,4.59952,2469.559,2019-5-26T12:02:18Z
2019-05-26T10:05:07Z,42.805,6.029,13.2957,4.59953,2469.587,2019-5-26T12:05:21Z
2019-05-26T10:08:09Z,42.805,6.029,13.2957,4.59954,2469.587,2019-5-26T12:08:24Z
2019-05-26T10:11:12Z,42.805,6.029,13.2953,4.59956,2469.587,2019-5-26T12:11:27Z
2019-05-26T10:14:15Z,42.805,6.029,13.2952,4.59956,2469.573,2019-5-26T12:14:30Z
2019-05-26T10:17:18Z,42.805,6.029,13.2953,4.59953,2469.54,2019-5-26T12:17:33Z
2019-05-26T10:20:21Z,42.805,6.029,13.2951,4.59950,2469.573,2019-5-26T12:20:36Z
2019-05-26T10:23:24Z,42.805,6.029,13.2951,4.59954,2469.587,2019-5-26T12:23:39Z
2019-05-26T10:26:27Z,42.805,6.029,13.2955,4.59954,2469.587,2019-5-26T12:26:42Z
2019-05-26T10:29:30Z,42.805,6.029,13.2953,4.59955,2469.61,2019-5-26T12:29:45Z
2019-05-26T10:32:33Z,42.805,6.029,13.2953,4.59951,2469.573,2019-5-26T12:32:48Z
2019-05-26T10:35:36Z,42.805,6.029,13.2956,4.59952,2469.573,2019-5-26T12:35:51Z
2019-05-26T10:38:39Z,42.805,6.029,13.2952,4.59956,2469.587,2019-5-26T12:38:54Z
2019-05-26T10:41:42Z,42.805,6.029,13.2948,4.59953,2469.573,2019-5-26T12:41:57Z
2019-05-26T10:44:45Z,42.805,6.029,13.2950,4.59956,2469.55,2019-5-26T12:45:00Z
2019-05-26T10:47:48Z,42.805,6.029,13.2953,4.59952,2469.573,2019-5-26T12:48:02Z
2019-05-26T10:50:51Z,42.805,6.029,13.2951,4.59958,2469.597,2019-5-26T12:51:05Z
2019-05-26T10:53:54Z,42.805,6.029,13.2953,4.59952,2469.573,2019-5-26T12:54:08Z
2019-05-26T10:56:57Z,42.805,6.029,13.2948,4.59953,2469.573,2019-5-26T12:57:11Z
2019-05-26T11:00:00Z,42.805,6.029,13.2948,4.59951,2469.61,2019-5-26T13:00:14Z
2019-05-26T11:03:03Z,42.805,6.029,13.2954,4.59954,2469.55,2019-5-26T13:03:17Z
2019-05-26T11:06:06Z,42.805,6.029,13.2952,4.59961,2469.587,2019-5-26T13:06:20Z
2019-05-26T11:09:09Z,42.805,6.029,13.2951,4.59955,2469.634,2019-5-26T13:09:23Z
2019-05-26T11:12:11Z,42.805,6.029,13.2951,4.59960,2469.583,2019-5-26T13:12:26Z
2019-05-26T11:15:14Z,42.805,6.029,13.2949,4.59954,2469.587,2019-5-26T13:15:29Z
2019-05-26T11:18:17Z,42.805,6.029,13.2951,4.59954,2469.587,2019-5-26T13:18:32Z
2019-05-26T11:21:20Z,42.805,6.029,13.2949,4.59958,2469.587,2019-5-26T13:21:35Z
2019-05-26T11:24:23Z,42.805,6.029,13.2952,4.59954,2469.573,2019-5-26T13:24:38Z
2019-05-26T11:27:26Z,42.805,6.029,13.2949,4.59956,2469.573,2019-5-26T13:27:41Z
2019-05-26T11:30:29Z,42.805,6.029,13.2952,4.59966,2469.563,2019-5-26T13:30:44Z
2019-05-26T11:33:32Z,42.805,6.029,13.2952,4.59968,2469.597,2019-5-26T13:33:47Z
2019-05-26T11:36:35Z,42.805,6.029,13.2948,4.59966,2469.61,2019-5-26T13:36:50Z
2019-05-26T11:39:38Z,42.805,6.029,13.2951,4.59974,2469.587,2019-5-26T13:39:53Z
2019-05-26T11:42:41Z,42.805,6.029,13.2948,4.59963,2469.587,2019-5-26T13:42:56Z
2019-05-26T11:45:44Z,42.805,6.029,13.2953,4.59972,2469.597,2019-5-26T13:45:59Z
2019-05-26T11:48:47Z,42.805,6.029,13.2949,4.59966,2469.597,2019-5-26T13:49:02Z
2019-05-26T11:51:50Z,42.805,6.029,13.2952,4.59958,2469.597,2019-5-26T13:52:05Z
2019-05-26T11:54:53Z,42.805,6.029,13.2953,4.59955,2469.573,2019-5-26T13:55:07Z
2019-05-26T11:57:56Z,42.805,6.029,13.2953,4.59954,2469.563,2019-5-26T13:58:10Z
2019-05-26T12:00:59Z,42.805,6.029,13.2953,4.59954,2469.61,2019-5-26T14:01:13Z
2019-05-26T12:04:02Z,42.805,6.029,13.2950,4.59961,2469.573,2019-5-26T14:04:16Z
2019-05-26T12:07:05Z,42.805,6.029,13.2950,4.59958,2469.573,2019-5-26T14:07:19Z
2019-05-26T12:10:08Z,42.805,6.029,13.2951,4.59958,2469.597,2019-5-26T14:10:22Z
2019-05-26T12:13:11Z,42.805,6.029,13.2948,4.59964,2469.597,2019-5-26T14:13:25Z
2019-05-26T12:16:14Z,42.805,6.029,13.2951,4.59969,2469.634,2019-5-26T14:16:28Z
2019-05-26T12:19:16Z,42.805,6.029,13.2952,4.59956,2469.573,2019-5-26T14:19:31Z
2019-05-26T12:22:19Z,42.805,6.029,13.2953,4.59956,2469.573,2019-5-26T14:22:34Z
2019-05-26T12:25:22Z,42.805,6.029,13.2950,4.59966,2469.61,2019-5-26T14:25:37Z
2019-05-26T12:28:25Z,42.805,6.029,13.2950,4.59960,2469.573,2019-5-26T14:28:40Z
2019-05-26T12:31:28Z,42.805,6.029,13.2951,4.59954,2469.573,2019-5-26T14:31:43Z
2019-05-26T12:34:31Z,42.805,6.029,13.2952,4.59958,2469.55,2019-5-26T14:34:46Z
2019-05-26T12:37:34Z,42.805,6.029,13.2950,4.59958,2469.587,2019-5-26T14:37:49Z
2019-05-26T12:40:37Z,42.805,6.029,13.2950,4.59958,2469.573,2019-5-26T14:40:52Z
2019-05-26T12:43:40Z,42.805,6.029,13.2950,4.59954,2469.61,2019-5-26T14:43:55Z
2019-05-26T12:46:43Z,42.805,6.029,13.2953,4.59958,2469.587,2019-5-26T14:46:58Z
2019-05-26T12:49:46Z,42.805,6.029,13.2949,4.59954,2469.597,2019-5-26T14:50:01Z
2019-05-26T12:52:49Z,42.805,6.029,13.2953,4.59978,2469.61,2019-5-26T14:53:04Z
2019-05-26T12:55:52Z,42.805,6.029,13.2952,4.59961,2469.573,2019-5-26T14:56:07Z
2019-05-26T12:58:55Z,42.805,6.029,13.2949,4.59968,2469.597,2019-5-26T14:59:09Z
2019-05-26T13:01:58Z,42.805,6.029,13.2948,4.59968,2469.573,2019-5-26T15:02:12Z
2019-05-26T13:05:01Z,42.805,6.029,13.2956,4.59964,2469.61,2019-5-26T15:05:15Z
2019-05-26T13:08:04Z,42.805,6.029,13.2951,4.59953,2469.587,2019-5-26T15:08:18Z
2019-05-26T13:11:07Z,42.805,6.029,13.2951,4.59962,2469.61,2019-5-26T15:11:21Z
2019-05-26T13:14:10Z,42.805,6.029,13.2950,4.59958,2469.61,2019-5-26T15:14:24Z
2019-05-26T13:17:13Z,42.805,6.029,13.2952,4.59957,2469.573,2019-5-26T15:17:27Z
2019-05-26T13:20:16Z,42.805,6.029,13.2948,4.59956,2469.587,2019-5-26T15:20:30Z
2019-05-26T13:23:18Z,42.805,6.029,13.2946,4.59953,2469.573,2019-5-26T15:23:33Z
2019-05-26T13:26:21Z,42.805,6.029,13.2952,4.59954,2469.573,2019-5-26T15:26:36Z
2019-05-26T13:29:24Z,42.805,6.029,13.2949,4.59956,2469.61,2019-5-26T15:29:39Z
2019-05-26T13:32:27Z,42.805,6.029,13.2952,4.59954,2469.54,2019-5-26T15:32:42Z
2019-05-26T13:35:30Z,42.805,6.029,13.2948,4.59958,2469.587,2019-5-26T15:35:45Z
2019-05-26T13:38:33Z,42.805,6.029,13.2951,4.59961,2469.61,2019-5-26T15:38:48Z
2019-05-26T13:41:36Z,42.805,6.029,13.2951,4.59956,2469.61,2019-5-26T15:41:51Z
2019-05-26T13:44:39Z,42.805,6.029,13.2952,4.59963,2469.597,2019-5-26T15:44:54Z
2019-05-26T13:47:42Z,42.805,6.029,13.2952,4.59953,2469.573,2019-5-26T15:47:57Z
2019-05-26T13:50:45Z,42.805,6.029,13.2950,4.59954,2469.573,2019-5-26T15:51:00Z
2019-05-26T13:53:48Z,42.805,6.029,13.2949,4.59952,2469.587,2019-5-26T15:54:03Z
2019-05-26T13:56:51Z,42.805,6.029,13.2947,4.59972,2469.587,2019-5-26T15:57:06Z
2019-05-26T13:59:54Z,42.805,6.029,13.2949,4.59964,2469.597,2019-5-26T16:00:09Z
2019-05-26T14:02:57Z,42.805,6.029,13.2949,4.59963,2469.597,2019-5-26T16:03:11Z
2019-05-26T14:06:00Z,42.805,6.029,13.2948,4.59966,2469.563,2019-5-26T16:06:14Z
2019-05-26T14:09:03Z,42.805,6.029,13.2952,4.59966,2469.563,2019-5-26T16:09:17Z
2019-05-26T14:12:06Z,42.805,6.029,13.2953,4.59957,2469.563,2019-5-26T16:12:20Z
2019-05-26T14:15:09Z,42.805,6.029,13.2950,4.59964,2469.573,2019-5-26T16:15:23Z
2019-05-26T14:18:12Z,42.805,6.029,13.2951,4.59961,2469.597,2019-5-26T16:18:26Z
2019-05-26T14:21:15Z,42.805,6.029,13.2954,4.59962,2469.597,2019-5-26T16:21:29Z
2019-05-26T14:24:18Z,42.805,6.029,13.2948,4.59951,2469.54,2019-5-26T16:24:32Z
2019-05-26T14:27:20Z,42.805,6.029,13.2947,4.59952,2469.587,2019-5-26T16:27:35Z
2019-05-26T14:30:23Z,42.805,6.029,13.2952,4.59962,2469.587,2019-5-26T16:30:38Z
2019-05-26T14:33:26Z,42.805,6.029,13.2952,4.59953,2469.55,2019-5-26T16:33:41Z
2019-05-26T14:36:29Z,42.805,6.029,13.2951,4.59968,2469.573,2019-5-26T16:36:44Z
2019-05-26T14:39:32Z,42.805,6.029,13.2949,4.59960,2469.55,2019-5-26T16:39:47Z
2019-05-26T14:42:36Z,42.805,6.029,13.2948,4.59956,2469.587,2019-5-26T16:42:51Z
2019-05-26T14:45:39Z,42.805,6.029,13.2950,4.59956,2469.573,2019-5-26T16:45:54Z
2019-05-26T14:48:42Z,42.805,6.029,13.2948,4.59960,2469.587,2019-5-26T16:48:56Z
2019-05-26T14:51:45Z,42.805,6.029,13.2951,4.59961,2469.587,2019-5-26T16:51:59Z
2019-05-26T14:54:48Z,42.805,6.029,13.2948,4.59961,2469.587,2019-5-26T16:55:02Z
2019-05-26T14:57:51Z,42.805,6.029,13.2953,4.59958,2469.563,2019-5-26T16:58:05Z
2019-05-26T15:00:54Z,42.805,6.029,13.2947,4.59963,2469.597,2019-5-26T17:01:08Z
2019-05-26T15:03:57Z,42.805,6.029,13.2954,4.59964,2469.563,2019-5-26T17:04:11Z
2019-05-26T15:07:00Z,42.805,6.029,13.2952,4.59968,2469.55,2019-5-26T17:07:14Z
2019-05-26T15:10:02Z,42.805,6.029,13.2951,4.59966,2469.55,2019-5-26T17:10:17Z